This is the latest recevied weather packets stored in our database for station/object VA3VWX-13. If no packets are shown the sender has not sent any weather packets the latest 1 day(s).
| Time | Temp. | Humidity | Pressure | Rain* | Wind** | Luminosity | Snow |
|---|---|---|---|---|---|---|---|
| 1778048330 | 7.78° C | 92% | 1008.7 hPa | 7.87 mm | - | - | - |
| 1778047715 | 7.78° C | 91% | 1009.1 hPa | 7.11 mm | - | - | - |
| 1778046504 | 7.78° C | 91% | 1009.1 hPa | 5.08 mm | - | - | - |
| 1778045911 | 7.78° C | 91% | 1009.3 hPa | 4.06 mm | - | - | - |
| 1778045326 | 7.78° C | 91% | 1009.4 hPa | 3.05 mm | - | - | - |
| 1778045003 | 7.78° C | 91% | 1009.6 hPa | 2.03 mm | - | - | - |
| 1778044710 | 7.78° C | 91% | 1009.7 hPa | 1.02 mm | - | - | - |
| 1778044418 | 7.78° C | 91% | 1009.7 hPa | 0 mm | - | - | - |
| 1778044116 | 7.78° C | 90% | 1009.9 hPa | 0 mm | - | - | - |
| 1778043835 | 7.78° C | 90% | 1009.9 hPa | 0 mm | - | - | - |
| 1778043519 | 7.78° C | 90% | 1009.7 hPa | 0 mm | - | - | - |
| 1778042904 | 7.78° C | 90% | 1009.5 hPa | 0 mm | - | - | - |
| 1778042610 | 7.78° C | 90% | 1009.5 hPa | 0 mm | - | - | - |
| 1778042317 | 7.78° C | 90% | 1009.4 hPa | 0 mm | - | - | - |
| 1778042020 | 7.78° C | 90% | 1009.5 hPa | 0 mm | - | - | - |
| 1778041718 | 7.78° C | 90% | 1009.4 hPa | 0 mm | - | - | - |
| 1778040810 | 7.78° C | 90% | 1009.4 hPa | 0 mm | - | - | - |
| 1778040517 | 7.78° C | 90% | 1009.4 hPa | 0 mm | - | - | - |
| 1778040235 | 7.78° C | 90% | 1009.3 hPa | 0 mm | - | - | - |
| 1778039630 | 7.78° C | 89% | 1009.2 hPa | 0 mm | - | - | - |
| 1778039307 | 7.78° C | 89% | 1009.2 hPa | 0 mm | - | - | - |
| 1778038714 | 7.78° C | 89% | 1009.1 hPa | 0 mm | - | - | - |
| 1778038421 | 7.78° C | 89% | 1009.2 hPa | 0 mm | - | - | - |
| 1778038107 | 7.78° C | 89% | 1009.2 hPa | 0 mm | - | - | - |
| 1778037806 | 8.33° C | 88% | 1009.2 hPa | 0 mm | - | - | - |
* Rain latest hour (hover to see other rain measurements)
** Current wind speed in m/s (hover to see current wind gust speed)